Weather History for Atwater, CA

Change the Weather History Date:

Friday, October 25, 2013

  Actual Average (KMCE) Record (KMCE)
Temperature  
Mean Temperature 62 °F 60 °F  
Max Temperature 80 °F 75 °F 87 °F (2008)
Min Temperature 44 °F 47 °F 43 °F (2006)
Degree Days  
Heating Degree Days 3    
Month to date heating degree days  
Since 1 July heating degree days  
Cooling Degree Days 0    
Month to date cooling degree days  
Year to date cooling degree days  
Growing Degree Days 12 (Base 50)    
Moisture  
Dew Point 49 °F    
Average Humidity 86    
Maximum Humidity 100    
Minimum Humidity 30    
Precipitation  
Precipitation 0.00 in 0.04 in 0.08 in (2000)
Month to date precipitation 0.50  
Year to date precipitation 9.49  
Since 1 July precipitation 0.81  
Snow  
Snow 0.00 in - - ()
Month to date snowfall  
Since 1 July snowfall  
Since 1 September snowfall  
Snow Depth -    
Sea Level Pressure  
Sea Level Pressure 30.10 in    
Wind  
Wind Speed 4 mph (North)    
Max Wind Speed 12 mph    
Max Gust Speed -    
Visibility 9 miles    
Events      
T = Trace of Precipitation, MM = Missing Value Source: NWS Daily Summary

Daily Weather History Graph

Daily Weather History Graph

Search for Another Location

Airport:

Trip Planner

Search our weather history database for the weather conditions in past years. The results will help you decide how hot, cold, wet, or windy it might be!

Date:

Astronomy

Oct. 25, 2013 Rise Set
Actual Time 7:20 AM PDT 6:11 PM PDT
Civil Twilight 6:53 AM PDT 6:38 PM PDT
Nautical Twilight 6:22 AM PDT 7:09 PM PDT
Astronomical Twilight 5:52 AM PDT 7:39 PM PDT
Moon 11:37 PM PDT (10/25) 1:01 PM PDT (10/25)
Length of Visible Light 11h 44m
Length of Day
10h 51m
Waning Gibbous, 61% of the Moon is Illuminated
Oct 25
Waning Gibbous
Oct 26
Last Quarter
Nov 3
New
Nov 9
First Quarter
Nov 17
Full

Hourly Weather History & Observations

Time (PDT) Temp. Windchill Dew Point Humidity Pressure Visibility Wind Dir Wind Speed Gust Speed Precip Events Conditions
12:15 AM 50.0 °F - 48.2 °F 94% 30.06 in 10.0 mi North 3.5 mph - N/A   Overcast
12:35 AM 50.0 °F - 50.0 °F 100% 30.06 in 10.0 mi NNW 3.5 mph - N/A   Overcast
12:55 AM 48.2 °F - 48.2 °F 100% 30.06 in 10.0 mi North - - N/A   Overcast
1:15 AM 50.0 °F - 50.0 °F 100% 30.06 in 10.0 mi North - - N/A   Overcast
1:35 AM 48.2 °F - 48.2 °F 100% 30.06 in 10.0 mi North - - N/A   Overcast
1:55 AM 48.2 °F - 48.2 °F 100% 30.07 in 10.0 mi North 5.8 mph - N/A   Overcast
2:15 AM 46.4 °F 44.3 °F 46.4 °F 100% 30.08 in 10.0 mi North 4.6 mph - N/A   Overcast
2:35 AM 46.4 °F 44.3 °F 46.4 °F 100% 30.09 in 10.0 mi North 4.6 mph - N/A   Overcast
2:55 AM 46.4 °F 44.3 °F 46.4 °F 100% 30.09 in 10.0 mi North 4.6 mph - N/A   Overcast
3:15 AM 48.2 °F - 48.2 °F 100% 30.09 in 10.0 mi North 4.6 mph - N/A   Overcast
3:35 AM 48.2 °F - 48.2 °F 100% 30.09 in 10.0 mi North 8.1 mph - N/A   Overcast
3:55 AM 48.2 °F - 48.2 °F 100% 30.08 in 10.0 mi NE 3.5 mph - N/A   Overcast
4:15 AM 46.4 °F 44.3 °F 46.4 °F 100% 30.09 in 10.0 mi North 4.6 mph - N/A   Overcast
4:35 AM 46.4 °F 45.2 °F 46.4 °F 100% 30.09 in 10.0 mi North 3.5 mph - N/A   Overcast
4:55 AM 46.4 °F - 46.4 °F 100% 30.09 in 10.0 mi North - - N/A   Overcast
5:15 AM 46.4 °F - 46.4 °F 100% 30.09 in 10.0 mi North - - N/A   Overcast
5:35 AM 46.4 °F - 46.4 °F 100% 30.10 in 10.0 mi North - - N/A   Overcast
5:55 AM 46.4 °F - 46.4 °F 100% 30.11 in 8.0 mi North - - N/A   Overcast
6:15 AM 46.4 °F - 46.4 °F 100% 30.11 in 7.0 mi North - - N/A   Overcast
6:35 AM 46.4 °F - 46.4 °F 100% 30.12 in 8.0 mi North - - N/A   Overcast
6:55 AM 46.4 °F 43.5 °F 46.4 °F 100% 30.12 in 7.0 mi North 5.8 mph - N/A   Overcast
7:48 AM 44.6 °F 42.2 °F 44.6 °F 100% 30.13 in 5.0 mi Variable 4.6 mph - N/A   Partly Cloudy
8:47 AM 51.8 °F - 51.8 °F 100% 30.15 in 6.0 mi Variable 4.6 mph - N/A   Haze
9:45 AM 57.2 °F - 53.6 °F 88% 30.16 in 7.0 mi NNW 6.9 mph - N/A   Clear
10:45 AM 64.4 °F - 51.8 °F 64% 30.15 in 7.0 mi NW 6.9 mph - N/A   Clear
11:45 AM 69.8 °F - 48.2 °F 46% 30.15 in 7.0 mi NW 6.9 mph - N/A   Clear
12:50 PM 73.4 °F - 46.4 °F 38% 30.13 in 7.0 mi Variable 3.5 mph - N/A   Clear
1:45 PM 75.2 °F - 46.4 °F 36% 30.10 in 7.0 mi Calm Calm - N/A   Clear
2:45 PM 78.8 °F - 44.6 °F 30% 30.08 in 7.0 mi Calm Calm - N/A   Clear
3:45 PM 80.6 °F - 46.4 °F 30% 30.07 in 7.0 mi Calm Calm - N/A   Clear
4:45 PM 78.8 °F - 46.4 °F 32% 30.07 in 7.0 mi Calm Calm - N/A   Clear
6:45 PM 64.4 °F - 48.2 °F 56% 30.07 in 7.0 mi NNW 9.2 mph - N/A   Clear
7:45 PM 60.8 °F - 48.2 °F 63% 30.07 in 7.0 mi NNW 11.5 mph - N/A   Clear
8:45 PM 59.0 °F - 48.2 °F 67% 30.08 in 7.0 mi NNW 9.2 mph - N/A   Clear
9:15 PM 57.2 °F - 51.8 °F 82% 30.08 in 10.0 mi North - - N/A   Clear
9:35 PM 55.4 °F - 51.8 °F 88% 30.09 in 9.0 mi Calm Calm - N/A   Clear
9:55 PM 53.6 °F - 53.6 °F 100% 30.09 in 8.0 mi Calm Calm - N/A   Clear
10:15 PM 53.6 °F - 53.6 °F 100% 30.10 in 7.0 mi ENE 3.5 mph - N/A   Clear
10:35 PM 51.8 °F - 51.8 °F 100% 30.10 in 8.0 mi Calm Calm - N/A   Clear
10:55 PM 51.8 °F - 51.8 °F 100% 30.11 in 10.0 mi Calm Calm - N/A   Clear
11:15 PM 51.8 °F - 51.8 °F 100% 30.10 in 10.0 mi Calm Calm - N/A   Clear
11:35 PM 51.8 °F - 51.8 °F 100% 30.10 in 10.0 mi North - - N/A   Clear
11:55 PM 51.8 °F - 51.8 °F 100% 30.10 in 10.0 mi North - - N/A   Clear